Atari, India

12:50 AM IST on December 08, 2016 (GMT +0530)
Amritsar

Weather History for VIAR - November, 2012

Change the Weather History Date:

Friday, November 23, 2012

  Actual Average Record
Temperature  
Mean Temperature 63 °F -  
Max Temperature 79 °F 73 °F 84 °F (2007)
Min Temperature 47 °F 47 °F 42 °F (1996)
Degree Days  
Heating Degree Days 2    
Growing Degree Days 13 (Base 50)    
Moisture  
Dew Point 52 °F    
Average Humidity 70    
Maximum Humidity 100    
Minimum Humidity 27    
Precipitation  
Precipitation 0.00 in - - ()
Sea Level Pressure  
Sea Level Pressure 29.94 in    
Wind  
Wind Speed 0 mph ()    
Max Wind Speed 4 mph    
Max Gust Speed -    
Visibility 1.6 miles    
Events      
Averages and records for this station are not official NWS values.
T = Trace of Precipitation, MM = Missing Value Source: Averaged Metar Reports

Daily Weather History Graph

Daily Weather History Graph

Search for Another Location

Airport or City:

Trip Planner

Search our weather history database for the weather conditions in past years. The results will help you decide how hot, cold, wet, or windy it might be!

Date:

Astronomy

Nov. 23, 2012 Rise Set
Actual Time 7:06 AM IST 5:28 PM IST
Civil Twilight 6:39 AM IST 5:54 PM IST
Nautical Twilight 6:10 AM IST 6:24 PM IST
Astronomical Twilight 5:40 AM IST 6:53 PM IST
Moon 2:15 PM IST (11/23) 2:14 AM IST (11/23)
Length of Visible Light 11h 14m
Length of Day
10h 22m
Waxing Gibbous, 76% of the Moon is Illuminated
Nov 23
Waxing Gibbous
Nov 28
Full
Dec 6
Last Quarter
Dec 13
New
Dec 20
First Quarter

Hourly Weather History & Observations

Time (IST) Temp. Dew Point Humidity Pressure Visibility Wind Dir Wind Speed Gust Speed Precip Events Conditions
12:00 AM 57.2 °F 55.4 °F 94% 29.95 in 1.2 mi Calm Calm - N/A   Mist
1:00 AM 51.8 °F 51.8 °F 100% 29.95 in 1.2 mi Calm Calm - N/A   Mist
1:30 AM 55.4 °F 51.8 °F 88% 29.92 in 1.2 mi Calm Calm - N/A   Mist
2:00 AM 55.4 °F 51.8 °F 88% 29.92 in 1.2 mi Calm Calm - N/A   Mist
2:30 AM 55.4 °F 51.8 °F 88% 29.92 in 1.2 mi Calm Calm - N/A   Mist
3:00 AM 55.4 °F 51.8 °F 88% 29.92 in 1.2 mi Calm Calm - N/A   Mist
3:30 AM 55.4 °F 51.8 °F 88% 29.92 in 1.2 mi Calm Calm - N/A   Mist
4:00 AM 55.4 °F 51.8 °F 88% 29.92 in 1.2 mi Calm Calm - N/A   Mist
5:00 AM 55.4 °F 51.8 °F 88% 29.92 in 1.2 mi Calm Calm - N/A   Mist
5:30 AM 50 °F 49 °F 96% 29.93 in 1 mi Calm Calm - -   Mist
6:00 AM 50.0 °F 50.0 °F 100% 29.92 in 1.1 mi Calm Calm - N/A   Mist
7:00 AM 48.2 °F 48.2 °F 100% 29.95 in 0.9 mi Calm Calm - N/A   Mist
7:30 AM 48.2 °F 48.2 °F 100% 29.95 in 0.9 mi Calm Calm - N/A   Mist
8:00 AM 48.2 °F 48.2 °F 100% 29.95 in 0.6 mi Calm Calm - N/A   Mist
8:30 AM 49 °F 46 °F 87% 29.99 in 1 mi Calm Calm - -   Mist
8:30 AM 50.0 °F 46.4 °F 87% 29.98 in 0.6 mi Calm Calm - N/A   Mist
9:00 AM 51.8 °F 48.2 °F 88% 29.98 in 0.7 mi Variable 1.2 mph - N/A   Mist
9:30 AM 53.6 °F 48.2 °F 82% 29.98 in 0.7 mi ENE 3.5 mph - N/A   Mist
10:00 AM 55.4 °F 46.4 °F 72% 30.01 in 0.9 mi Variable 2.3 mph - N/A   Mist
10:30 AM 60.8 °F 48.2 °F 63% 30.01 in 0.9 mi Variable 1.2 mph - N/A   Haze
11:00 AM 64.4 °F 48.2 °F 56% 29.98 in 1.1 mi Variable 2.3 mph - N/A   Haze
11:30 AM 68.0 °F 53.6 °F 60% 29.98 in 1.4 mi Calm Calm - N/A   Haze
12:00 PM 69.8 °F 53.6 °F 56% 29.98 in 1.6 mi Calm Calm - N/A   Haze
1:00 PM 75.2 °F 53.6 °F 47% 29.95 in 3.1 mi Calm Calm - N/A   Haze
1:30 PM 77.0 °F 50.0 °F 39% 29.95 in 2.5 mi Variable 2.3 mph - N/A   Haze
2:30 PM 78 °F 50 °F 27% 29.88 in 2 mi 2.3 mph - -   Haze
2:30 PM 78.8 °F 50.0 °F 36% 29.92 in 3.1 mi Variable 2.3 mph - N/A   Haze
3:00 PM 78.8 °F 51.8 °F 39% 29.92 in 3.1 mi Variable 2.3 mph - N/A   Haze
3:30 PM 78.8 °F 51.8 °F 39% 29.89 in 3.1 mi Variable 3.5 mph - N/A   Smoke
4:00 PM 77.0 °F 53.6 °F 44% 29.89 in 3.1 mi West 3.5 mph - N/A   Smoke
4:30 PM 77.0 °F 53.6 °F 44% 29.89 in 3.1 mi Variable 3.5 mph - N/A   Smoke
5:00 PM 77.0 °F 53.6 °F 44% 29.89 in 3.1 mi Calm Calm - N/A   Smoke
5:30 PM 75 °F 54 °F 38% 29.88 in 2 mi Calm Calm - -   Smoke
5:30 PM 75.2 °F 55.4 °F 50% 29.89 in 3.1 mi Calm Calm - N/A   Smoke
6:00 PM 73.4 °F 55.4 °F 53% 29.92 in 2.5 mi Calm Calm - N/A   Smoke
6:30 PM 73.4 °F 55.4 °F 53% 29.92 in 2.2 mi Calm Calm - N/A   Smoke
7:00 PM 71.6 °F 57.2 °F 60% 29.92 in 1.9 mi Calm Calm - N/A   Haze
7:30 PM 68.0 °F 57.2 °F 68% 29.92 in 1.9 mi Calm Calm - N/A   Haze
8:00 PM 66.2 °F 53.6 °F 64% 29.92 in 1.9 mi Calm Calm - N/A   Haze
8:30 PM 64.4 °F 53.6 °F 68% 29.92 in 1.2 mi Calm Calm - N/A   Haze
9:00 PM 62.6 °F 53.6 °F 72% 29.95 in 1.2 mi Calm Calm - N/A   Haze
9:30 PM 62.6 °F 53.6 °F 72% 29.95 in 1.2 mi Calm Calm - N/A   Haze
10:00 PM 62.6 °F 53.6 °F 72% 29.95 in 1.2 mi Calm Calm - N/A   Haze
10:30 PM 62.6 °F 53.6 °F 72% 29.95 in 1.2 mi Calm Calm - N/A   Haze
11:00 PM 59.0 °F 51.8 °F 77% 29.95 in 1.2 mi Calm Calm - N/A   Partly Cloudy
11:30 PM 59 °F 52 °F 70% 29.95 in 1 mi Calm Calm - -   Mist
11:30 PM 59.0 °F 51.8 °F 77% 29.95 in 1.2 mi Calm Calm - N/A   Partly Cloudy